Terminal Aerodrome Forecast
Issued by NWS

Current Version | Previous Version | Text Only | Print | Product List | Glossary Off
Versions: 1 2 3 4 5 6 7 8 9 10 11 12 13 14 15 16 17 18 19 20 21 22 23 24 25 26 27 28 29 30 31 32 33 34 35 36 37 38 39 40 41 42

000
FTUS41 KRNK 230444 AAB
TAFLWB
TAF AMD
KLWB 230444Z 2305/2324 00000KT 3SM BR SCT025 OVC070
      TEMPO 2306/2310 1SM BR BKN015
     FM231330 28003KT P6SM BKN040
     FM231800 01005KT P6SM OVC040=

USA.gov is the U.S. government's official web portal to all federal, state and local government web resources and services.